Regional Weather Roundup
Issued by NWS Little Rock, AR

Home | Current Version | Previous Version | Graphics & Text | Print | Product List | Glossary On
Versions: 1 2 3 4 5 6 7 8 9 10 11 12 13 14 15 16 17 18 19 20 21 22 23 24 25 26 27
000
ASUS44 KLZK 280705
RWRLZK

WEATHER ROUNDUP FOR ARKANSAS
NATIONAL WEATHER SERVICE LITTLE ROCK AR
200 AM CDT THU JUL 28 2016

NOTE: "FAIR" INDICATES FEW OR NO CLOUDS BELOW 12,000 FEET WITH NO
SIGNIFICANT WEATHER AND/OR OBSTRUCTIONS TO VISIBILITY.

ARZ001-003-010-029-280800-
NORTHWEST ARKANSAS

CITY           SKY/WX    TMP DP  RH WIND       PRES   REMARKS
FAYETTEVILLE   CLEAR     70  70 100 CALM      29.98F
FORT SMITH     CLEAR     79  72  79 CALM      29.94R
HARRISON       CLOUDY    72  70  93 W3        29.98F
BENTONVILLE    CLEAR     70  66  88 CALM      29.99S
ROGERS         CLEAR     69  69 100 CALM      29.99F
SILOAM SPGS    CLEAR     70  63  78 CALM      29.99S
HIGHFILL       CLEAR     71  70  96 CALM      29.98S
$$

ARZ004-005-016-280800-
NORTH CENTRAL ARKANSAS

CITY           SKY/WX    TMP DP  RH WIND       PRES   REMARKS
BATESVILLE     CLOUDY    73  72  94 W3        29.94S
FLIPPIN        CLOUDY    73  70  88 CALM      29.91F
MTN HOME       CLOUDY    73  72  96 CALM      29.94F
$$

ARZ040-041-280800-
WEST CENTRAL ARKANSAS

CITY           SKY/WX    TMP DP  RH WIND       PRES   REMARKS
MENA             N/A    N/A N/A N/A MISG        N/A
MOUNT IDA      CLOUDY    74  73  97 CALM      29.94S
$$

ARZ009-017-025-026-028-280800-
NORTHEAST ARKANSAS

CITY           SKY/WX    TMP DP  RH WIND       PRES   REMARKS
CORNING          N/A     75  75 100 W3        29.92F
JONESBORO      CLOUDY    76  73  91 SE6       29.91S
NEWPORT        CLOUDY    76  76 100 W5        29.93S
WALNUT RIDGE   CLOUDY    75  73  94 N5        29.91S
BLYTHEVILLE    LGT RAIN  77  75  93 S5        29.90F
$$

ARZ022-023-033-042-044-280800-
CENTRAL ARKANSAS

CITY           SKY/WX    TMP DP  RH WIND       PRES   REMARKS
LITTLE ROCK    CLOUDY    78  73  84 S3        29.94S
N LITTLE ROCK    N/A     75  73  95 CALM      29.91F
JACKSONVILLE   CLOUDY    76  76 100 CALM      29.93S
SEARCY         CLOUDY    75  75 100 SW3       29.95S
HOT SPRINGS    PTCLDY    76  74  93 W3        29.96R
RUSSELLVILLE   CLOUDY    77  75  93 CALM      29.93R
$$

ARZ036-280800-
EAST ARKANSAS

CITY           SKY/WX    TMP DP  RH WIND       PRES   REMARKS
WEST MEMPHIS   LGT RAIN  75  74  96 CALM      29.90F
$$

ARZ050-053-066-070-073-280800-
SOUTHWEST ARKANSAS

CITY           SKY/WX    TMP DP  RH WIND       PRES   REMARKS
ARKADELPHIA    FAIR      74  74 100 S3        29.96R
CAMDEN         CLOUDY    75  72  88 CALM      29.95S
TEXARKANA      CLOUDY    74  72  93 S3        29.95S
EL DORADO      CLOUDY    75  73  93 SW5       29.96S
DE QUEEN       FOG       73  73 100 CALM      29.93R VSB 1/4
$$

ARZ056-057-069-280800-
SOUTHEAST ARKANSAS

CITY           SKY/WX    TMP DP  RH WIND       PRES   REMARKS
STUTTGART      CLOUDY    75  72  88 S5        29.95S
MONTICELLO     MOCLDY    77  74  90 SW5       29.95S

$$






USA.gov is the U.S. government's official web portal to all federal, state and local government web resources and services.